STARLINK-2029, 48320

Orbit data source: Space-Track

STARLINK-2029, 48320 is a payload satellite owned by SpaceX/Seattle (US) in LEO that was launched on Thu, 29 Apr 2021 UTC via an FALCON 9 launch vehicle from the Air Force Eastern Test Range (AFETR). Payload-class satellites include a variety of spacecraft equipped with specific instruments for various scientific and technological missions. These include communications satellites like Starlink; space stations such as the ISS; scientific satellites like the Hubble; Earth observation satellites from companies like Planet Labs, Umbra, and HawkEye 360; GPS; miniature CubeSats for education and research; and military/defense satellites.

Loading next visibility...
Identifier
48320, 2021-036AW
Orbit
LEO
Country
Flag of USUS
Related business
Manufacturer
SpaceX/Seattle
Mission
Operational Commercial Communications
Bus & Motor
STARLINK, Unknown motor
Mass
260 kg wet, ~248 kg dry
Launch date (UTC)
2021-04-29 (5 years ago)
Launch vehicle
FALCON 9
Launch site
Air Force Eastern Test Range (AFETR)
Object type
Payload
Rocket body
Debris
Shape & HBR
Box + 1 Pan, 10.1 m
Radar Cross Section
13.562 m², Large (>1 m²)

Expand to show TLE details & history
Last TLE update: 2 days ago

TLE from 2 days ago
0 STARLINK-2029
1 48320U 21036AW  26171.17579348  .00001124  00000-0  47955-4 0  9992
2 48320  53.1632 344.6593 0000943  61.9635 298.1462 15.31715731283738
Epoch: 2026-06-20T04:13Z
TLE epoch observation values (Epoch: 2026-06-20T04:13:08.556Z)
Latitude
-0.00001°
Longitude
12.97946°
Altitude
471.289 km
Speed
7.632 km/s
True Right ascension
22h 58m 38s
True Declination
0° 00' 00"
Sunlit
Object was in daylight at epoch
Visualization orbit readout
Latitude
Unknown
Longitude
Unknown
Altitude
Unknown
Speed
Unknown
Apparent Right ascension
Unknown
Apparent Declination
Unknown
Sunlit
N/A
Visualization observer readout
Local Sidereal Time
21:36:00
Azimuth
Unknown
Elevation
Unknown
Doppler factor
Unknown
Orbital elements
Apogee altitude
471.595 km
Perigee altitude
470.303 km
Semi-major axis
6,849.086 km
Eccentricity
0.00009
Inclination
53.1632°
RAAN
344.6593°
Arg. of periapsis
61.9635°
True anomaly
298.13667°
Mean anomaly
298.1462°
Eccentric anomaly
298.14144°
Mean motion
3.82908 °/min
Orbital period
94.02 mins
BSTAR
0.000047955
Loading maneuver chart data...
Computing Atmospheric mass density...
Loading historical data...
Loading historical data...
Loading historical data...
Loading historical data...
Loading historical data...
Loading historical data...
Loading historical data...

Documentation

Showing up to 5 results
|